Location: Unspecified
(50.0000°N, 15.0000°E)
Time: 09:57:01
(UTC+01:00)

N. Korean satellite - Visible Passes

Search period start: 30 November 2021 00:00
Search period end: 10 December 2021 00:00
Orbit: 447 x 495 km, 97.3° (Epoch: 29 November)

Date Brightness Start Highest point End Pass type
(mag) Time Alt. Az. Time Alt. Az. Time Alt. Az.
30 Nov 8.9 04:37:56 10° NE 04:40:41 22° E 04:43:24 10° SSE visible
30 Nov 7.3 06:10:58 10° N 06:13:54 27° WNW 06:16:48 10° SW visible
30 Nov 8.2 16:48:51 10° SSW 16:52:11 38° W 16:55:31 10° NNW visible
01 Dec 9.9 04:10:56 10° ENE 04:11:57 11° E 04:12:59 10° ESE visible
01 Dec 6.4 05:42:10 10° N 05:45:33 58° WNW 05:48:51 10° SSW visible
02 Dec 6.9 05:13:40 10° NNE 05:17:03 60° E 05:20:23 10° S visible
02 Dec 8.3 06:48:22 10° NW 06:49:47 12° WNW 06:51:12 10° W visible
02 Dec 9.7 17:26:26 10° SW 17:28:37 16° W 17:30:49 10° NW visible
03 Dec 8.5 04:45:29 10° NE 04:48:27 27° E 04:51:22 10° SSE visible
03 Dec 7.6 06:18:49 10° NNW 06:21:33 23° WNW 06:24:16 10° WSW visible
03 Dec 8.7 16:56:45 10° SSW 16:59:56 31° W 17:03:05 10° NNW visible
04 Dec 9.7 04:17:57 10° ENE 04:19:43 13° E 04:21:28 10° ESE visible
04 Dec 6.6 05:49:54 10° N 05:53:12 46° WNW 05:56:26 10° SW visible
05 Dec 6.5 05:21:18 10° NNE 05:24:42 76° ESE 05:28:04 10° S visible
05 Dec 8.5 06:56:56 10° NW 06:57:21 10° WNW 06:57:47 10° WNW visible
05 Dec 9.9 17:34:42 10° WSW 17:36:20 13° W 17:37:59 10° WNW visible
06 Dec 8.1 04:52:59 10° NNE 04:56:06 33° E 04:59:11 10° SSE visible
06 Dec 7.8 06:26:38 10° NNW 06:29:07 19° WNW 06:31:35 10° WSW visible
06 Dec 9.0 17:04:37 10° SSW 17:07:35 25° W 17:10:32 10° NW visible
07 Dec 9.4 04:25:09 10° NE 04:27:22 16° E 04:29:35 10° SE visible
07 Dec 6.8 05:57:34 10° N 06:00:45 38° WNW 06:03:54 10° SW visible
07 Dec 7.4 16:35:30 10° S 16:38:56 54° W 16:42:21 10° NNW visible
08 Dec 6.2 05:28:51 10° NNE 05:32:15 86° WNW 05:35:39 10° SSW visible
08 Dec 10.2 17:43:24 10° W 17:43:59 10° W 17:44:34 10° WNW visible
09 Dec 7.7 05:00:25 10° NNE 05:03:39 41° E 05:06:52 10° S visible
09 Dec 8.0 06:34:23 10° NNW 06:36:34 16° WNW 06:38:44 10° WSW visible
09 Dec 9.4 17:12:28 10° SW 17:15:10 21° W 17:17:51 10° NW visible
